Presure
157 169 151 155 167 150 163 161 148 134 165 146 152 145 160 163 150 150 166 165 137 182 152 197 174 183 166 153 162 162 190 163 168 173 185 173 170 183 181 179 190 188 188
149 170 160 152 144 150 171 158 154 138 128 156 136 153 157 169 148 161 157 158 169 159 175 178 158 162 162 165 153 163 173 184 175 176 178 155 174 169 189 188 193 174 184
105 163 154 147 156 150 141 142 143 156 158 153 143 126 150 120 160 124 159 153 129 131 147 163 160 152 145 170 171 147 175 171 157 175 189 160 151 160 177 164 191 173 173
143 143 153 150 143 115 136 127 151 129 141 145 159 145 151 153 154 138 172 140 146 144 161 172 190 182 142 136 149 166 134 158 147 170 165 192 186 165 197 155 197 180 167
169 180 155 139 147 159 152 161 135 131 132 153 148 149 153 140 140 142 182 145 142 124 133 135 127 153 163 157 172 159 176 154 147 140 154 174 153 171 170 174 160 157 172
162 157 170 154 161 150 178 152 145 147 151 137 160 140 155 187 149 178 176 130 149 148 146 131 164 172 163 144 130 170 126 158 163 148 161 174 159 165 155 162 182 164 163
169 135 171 168 173 163 183 181 153 152 146 164 165 171 154 174 145 162 162 160 165 109 162 144 130 123 164 136 170 138 137 124 161 146 163 169 162 159 173 179 177 197 187
153 156 159 161 178 163 167 170 160 183 153 155 135 152 143 159 154 171 162 165 170 179 135 158 146 129 130 132 170 181 129 173 147 116 160 144 160 155 157 164 176 150 157
166 152 177 164 184 182 166 169 180 169 165 147 181 170 158 150 170 159 144 174 149 147 163 172 162 147 170 145 150 163 135 114 170 176 143 151 147 157 160 136 170 184 162
177 184 180 197 158 195 164 171 177 136 154 131 140 194 154 128 157 177 161 162 177 146 175 168 171 140 166 161 143 146 173 177 131 144 171 151 133 165 166 168 162 175 171
191 188 170 189 214 150 194 195 213 190 141 140 144 165 151 126 136 152 153 147 149 129 156 133 184 192 187 191 151 147 156 159 134 178 180 151 162 174 173 160 167 155 180
185 177 180 193 193 189 203 193 183 234 187 192 139 180 161 174 169 168 147 188 137 169 180 149 151 181 143 153 156 184 171 162 158 179 139 195 182 174 157 151 163 157 179
175 190 205 204 206 204 216 227 238 223 194 217 192 179 169 163 179 180 184 149 145 160 158 166 154 165 152 192 158 185 195 178 176 157 189 168 201 172 192 176 164 168 170
234 204 215 234 232 217 221 213 233 239 215 223 213 192 207 195 151 211 153 154 137 132 176 170 176 175 177 150 183 201 162 220 191 141 225 125 160 154 159 165 155 162 175
240 328 372 364 443 372 350 309 310 300 294 266 228 223 211 224 193 193 182 177 190 175 183 183 178 147 167 152 200 199 182 179 189 186 155 194 172 219 213 133 180 175 177
378 395 368 428 389 388 413 393 403 415 411 353 350 270 232 219 237 226 181 192 193 192 151 187 176 151 161 151 187 167 192 153 167 188 155 199 182 126 207 203 151 190 184
423 398 391 388 407 420 442 420 420 424 412 326 380 366 302 241 241 234 235 239 178 218 206 213 191 142 182 182 193 198 183 197 192 192 196 133 175 173 179 197 144 201 164
395 369 381 379 407 424 437 434 406 403 372 463 379 359 334 310 300 276 239 238 248 247 206 224 198 194 192 189 122 187 172 141 182 196 186 148 151 155 202 183 187 155 154
372 372 352 348 355 394 418 405 409 384 376 365 433 361 335 315 305 298 286 270 264 216 211 203 200 183 201 158 188 169 193 190 188 181 197 176 165 207 169 192 204 180 189
350 345 337 334 337 355 371 378 403 385 356 374 390 437 350 291 292 288 305 264 260 262 245 214 211 200 221 209 181 182 182 201 164 195 158 195 170 161 194 199 148 148 198
327 326 324 320 322 319 338 346 356 362 382 384 368 380 345 287 279 281 314 292 280 247 247 228 213 192 214 216 191 192 176 194 183 204 196 203 205 190 169 152 166 170 192
321 309 316 308 306 308 312 317 338 335 337 341 364 361 289 300 279 261 289 296 265 257 248 229 240 240 205 205 211 205 173 180 219 192 213 218 198 207 183 155 181 212 194
323 317 307 295 301 294 300 304 316 326 321 316 319 350 314 310 284 269 268 281 287 266 263 246 244 241 227 206 212 215 207 204 196 209 210 208 201 193 188 194 163 204 200
307 320 301 301 298 297 304 291 300 307 319 324 323 334 342 312 291 279 268 270 288 267 262 247 249 252 248 215 208 204 200 208 200 198 198 202 205 172 211 173 231 205 201
307 314 294 294 301 309 295 297 303 297 305 308 323 321 316 320 304 291 276 268 262 276 257 264 254 267 249 241 203 226 207 204 211 205 215 204 193 204 155 222 209 198 194
315 294 306 303 295 298 297 293 302 310 309 303 306 320 318 332 309 300 277 273 267 274 264 268 280 265 250 235 218 224 211 204 206 202 206 198 198 198 170 210 207 186 156
Wind_Speed
37 47 41 37 52 49 44 41 42 52 44 53 52 60 52 44 53 51 59 49 36 49 37 40 35 31 28 32 30 29 32 29 30 27 26 32 34 30 33 35 30 29 30
41 52 49 41 55 46 45 47 48 57 44 66 53 60 52 56 54 52 62 61 56 33 47 39 31 33 32 34 34 31 28 36 26 29 29 29 28 31 32 32 27 38 29
31 51 37 45 53 53 52 46 49 53 65 65 62 31 56 49 53 31 62 52 23 36 38 39 33 36 34 41 36 35 43 35 31 36 40 33 40 31 26 33 29 30 33
48 42 51 46 49 34 55 54 54 58 67 71 74 62 60 57 58 42 56 61 55 43 44 51 65 55 42 37 39 41 41 34 40 37 29 45 44 39 40 36 30 30 32
69 67 57 46 57 60 59 59 62 58 62 70 75 70 63 51 64 43 55 62 54 35 41 48 40 46 54 47 56 43 50 42 37 39 36 43 32 35 34 39 35 35 32
66 55 73 58 66 62 68 61 68 63 70 70 74 53 75 64 68 53 50 49 81 64 69 44 53 52 54 39 42 50 42 45 41 45 38 54 38 45 35 29 46 31 30
80 43 82 81 86 66 72 64 72 72 71 75 70 69 63 58 74 71 62 67 74 47 77 60 41 40 53 31 61 44 52 45 48 41 45 51 40 44 56 56 46 51 45
60 59 67 70 91 69 68 58 67 66 75 72 69 75 62 71 68 69 66 65 73 69 54 78 74 45 44 42 60 64 45 69 45 39 47 42 42 44 39 39 51 41 34
86 48 103 68 102 97 60 58 76 69 69 74 81 75 82 75 67 65 67 67 63 58 84 77 86 52 70 61 58 57 50 40 64 60 46 45 43 44 45 49 44 52 34
100 103 97 103 64 111 65 64 87 67 60 72 67 70 60 53 73 59 53 71 76 61 83 90 85 53 69 64 54 47 66 75 55 62 70 47 43 53 60 62 35 50 42
100 111 84 114 119 67 114 112 117 100 81 65 66 73 69 57 73 70 58 70 81 36 63 44 75 83 70 71 63 61 63 64 51 68 69 49 68 69 65 54 59 34 60
113 99 96 113 116 100 124 110 91 121 100 104 83 80 72 84 86 82 75 86 48 85 86 75 71 79 57 71 66 67 61 64 60 64 44 64 72 70 59 50 57 61 58
102 124 122 123 126 124 116 122 130 130 105 125 112 106 81 75 103 106 87 78 74 86 81 90 66 79 63 92 71 84 79 66 65 66 64 52 54 56 62 66 67 62 58
137 132 138 142 133 146 141 138 145 137 133 135 132 118 127 117 88 111 80 89 52 37 99 107 100 97 89 60 88 78 58 83 81 49 67 49 50 57 56 77 59 53 65
131 137 124 124 85 120 125 137 143 135 132 127 126 132 128 124 107 109 94 102 113 99 107 110 106 60 87 58 103 101 78 74 85 79 60 66 64 56 49 41 68 64 68
112 96 94 57 73 73 69 81 88 86 84 110 111 121 122 118 123 121 107 113 118 104 83 101 105 71 83 56 99 64 96 58 69 72 65 74 60 50 55 53 48 72 74
43 54 51 56 51 44 43 50 63 69 87 86 87 90 115 131 128 127 125 126 106 117 106 114 113 42 111 94 106 105 90 106 97 91 91 57 68 65 64 62 45 62 60
42 50 41 34 33 35 40 49 58 60 73 73 87 91 96 99 113 122 128 125 125 122 107 114 107 120 122 111 52 110 69 53 82 101 67 51 55 62 67 71 70 49 48
36 28 29 30 31 29 25 37 52 57 53 60 66 86 91 87 94 90 103 106 120 115 118 112 107 101 123 63 105 76 115 112 100 74 98 75 60 75 68 70 60 65 62
31 28 29 27 26 26 23 18 21 45 47 51 54 55 86 83 85 85 86 104 111 108 122 123 122 112 120 124 97 98 94 121 62 110 62 89 73 62 68 59 57 59 71
37 30 28 29 29 27 21 18 16 15 24 31 45 51 81 81 83 88 88 87 95 109 111 125 119 99 115 124 116 123 82 116 88 117 98 102 96 80 73 44 64 62 76
38 37 29 27 25 22 22 20 16 14 17 28 28 47 72 87 86 86 83 86 96 99 108 120 126 119 113 115 120 130 76 81 109 87 103 100 86 86 77 57 73 73 77
37 29 30 35 29 26 21 18 19 13 22 30 40 50 73 90 92 91 93 88 98 97 100 113 116 112 119 114 116 118 118 115 107 106 104 100 89 87 82 79 62 69 61
40 32 33 34 35 34 28 27 24 22 22 28 41 48 62 76 96 98 91 94 94 97 103 108 102 98 102 114 116 116 117 115 105 93 97 103 105 72 92 75 93 80 69
43 41 41 38 39 38 38 35 33 32 30 31 31 42 60 76 94 105 97 97 89 100 100 98 93 99 101 101 110 113 119 113 115 110 113 101 78 101 63 88 71 68 77
48 45 42 40 40 40 39 40 38 37 39 41 43 42 50 51 97 101 99 98 97 103 99 98 97 102 100 101 116 114 119 115 116 108 107 89 87 88 68 93 82 77 58
Wind_Direction
284 301 272 282 299 279 289 281 268 277 295 275 284 280 298 283 282 297 290 290 282 288 289 288 283 281 287 284 295 289 304 281 295 305 314 319 298 313 310 307 306 300 296
284 299 295 279 280 275 287 287 279 274 282 292 275 281 292 289 282 290 290 296 294 282 288 288 271 272 291 282 283 295 290 307 305 302 302 291 298 313 314 314 295 293 304
293 281 267 263 277 275 271 275 266 284 283 284 274 262 283 264 290 280 287 283 255 285 281 282 259 281 268 296 302 276 307 305 282 309 311 282 283 291 319 309 303 293 298
269 264 256 243 245 271 258 284 266 281 270 275 279 272 279 275 287 273 271 275 280 290 282 284 282 287 271 275 282 291 270 280 285 302 287 302 306 297 298 292 300 303 294
276 271 267 259 269 255 254 251 265 275 277 268 272 277 276 275 271 270 282 279 272 259 277 279 270 275 273 280 286 281 293 286 280 281 284 308 262 299 293 297 289 289 277
277 278 277 254 258 249 260 236 238 245 251 266 268 276 273 277 268 277 270 250 271 273 276 261 275 276 280 264 269 281 260 283 287 285 288 294 285 292 270 280 311 284 274
276 263 276 278 278 275 266 264 237 244 243 264 262 266 272 273 265 269 264 266 268 266 271 272 249 256 271 267 283 266 266 260 282 282 282 288 286 286 298 304 307 303 308
286 288 288 266 271 275 260 245 256 260 241 253 271 259 266 258 258 272 271 271 274 271 255 266 270 254 254 260 275 275 265 280 275 263 278 277 280 275 271 282 303 265 267
286 283 274 279 271 270 269 261 267 254 246 255 256 251 252 261 260 262 266 275 265 262 264 264 261 260 268 280 278 272 247 267 283 278 281 279 275 283 278 266 284 294 252
282 279 276 274 267 266 264 269 263 276 250 271 272 246 257 274 260 274 272 262 272 273 263 264 265 276 264 261 275 272 274 275 273 273 279 275 267 278 282 284 278 287 289
276 274 290 278 286 266 275 269 262 266 258 255 251 261 267 276 273 265 253 257 271 243 258 259 274 275 255 260 274 261 269 273 249 278 274 277 277 278 279 276 285 253 292
280 281 284 281 273 279 275 281 279 266 275 272 258 265 257 249 254 260 259 243 273 272 263 269 267 269 253 267 269 264 262 269 267 273 262 264 272 273 272 266 278 277 284
294 280 283 284 279 279 279 271 267 269 276 267 275 266 250 265 261 264 255 267 272 269 270 271 265 267 265 269 267 275 269 270 264 263 276 256 261 263 265 270 273 275 280
284 285 280 274 276 274 275 276 271 266 270 266 266 270 268 268 262 253 271 261 275 264 265 269 268 270 263 269 274 268 253 268 273 252 275 266 262 266 262 267 265 262 274
284 287 286 284 276 272 266 264 263 260 257 254 262 262 264 258 267 263 260 260 257 266 264 261 265 266 272 267 264 267 273 272 275 275 255 274 256 266 251 268 260 260 269
295 290 289 284 279 274 269 261 249 248 240 249 249 250 252 253 247 249 255 262 260 259 266 259 255 269 268 268 269 264 274 248 272 273 264 274 267 270 266 255 264 253 259
303 299 297 293 293 285 271 246 251 252 246 250 233 222 245 247 249 248 247 242 252 249 247 247 247 262 262 270 263 261 270 269 273 277 276 253 257 267 268 268 266 250 251
295 299 303 320 325 301 270 249 242 246 247 248 229 223 223 236 243 243 246 245 239 238 248 242 243 248 254 260 259 262 267 254 271 270 261 252 255 257 261 270 265 243 250
304 303 300 316 331 330 310 272 246 244 247 240 240 223 219 226 233 234 239 239 243 242 243 242 244 251 250 252 260 257 259 261 268 260 269 254 254 266 254 268 265 259 260
313 314 314 305 322 352 348 324 288 246 241 242 237 245 213 223 233 228 223 231 237 241 238 238 241 245 241 245 256 255 257 258 241 265 249 263 254 251 263 265 240 261 264
305 306 311 315 323 323 346 344 316 286 267 244 232 228 209 217 226 232 226 224 225 233 236 238 238 241 243 243 248 253 257 257 259 263 261 266 266 262 250 265 257 263 266
301 303 309 307 309 315 318 314 327 281 268 232 235 230 219 214 218 231 236 224 220 228 229 236 239 239 239 242 246 248 249 255 255 253 261 261 260 263 240 250 249 265 252
299 295 292 295 296 291 291 293 299 293 240 237 233 228 214 213 217 223 228 232 218 221 220 227 235 236 237 239 243 246 248 251 254 256 257 257 258 255 254 241 250 259 261
296 289 289 293 289 287 283 275 269 268 264 243 232 229 229 222 215 220 224 230 222 221 221 225 230 230 233 237 240 243 247 247 254 251 258 260 258 255 263 248 268 265 246
293 287 286 285 289 286 284 282 274 263 257 251 248 234 226 222 214 218 222 226 227 225 226 226 226 224 223 230 237 239 243 248 249 254 252 258 256 263 255 265 265 245 244
288 290 285 285 283 286 283 280 280 275 260 250 245 245 232 232 217 222 220 222 228 226 227 231 227 216 217 222 233 235 239 244 247 251 254 256 258 258 252 266 257 246 245